User: anonymous   Login
Location: Unspecified
(0.0000°N, 0.0000°E)
Time: 08:56:09
(UTC+00:00)
Language:

USA 202 - Orbit

View from above orbital plane
View from above orbital plane
View from above satellite
View from above satellite

Ground track
Ground track

The orbit data is extracted from the following two-line orbital elements,

1 33490U 09001A   17165.22936306 0.00000000  00000-0  00000-0 0    03
2 33490   4.8704  29.3429 0013555   3.9501 356.0455  1.00270000    08
Epoch (UTC): 14 June 2017 05:30:16
Eccentricity: 0.0013555
inclination: 4.8704°
perigee height: 35729 km
apogee height: 35844 km
right ascension of ascending node: 29.3429°
argument of perigee: 3.9501°
revolutions per day: 1.00270000
mean anomaly at epoch: 356.0455°
orbit number at epoch: 0

The dashed part of the orbit path shows where the satellite is in the earth's shadow,  

DLR